Weather History for La Porte, IN

Change the Weather History Date:

Monday, February 17, 2014

  Actual Average (KVPZ) Record (KVPZ)
Temperature  
Mean Temperature 18 °F 28 °F  
Max Temperature 27 °F 36 °F 52 °F (2008)
Min Temperature 10 °F 20 °F 10 °F (2013)
Degree Days  
Heating Degree Days 46 37  
Month to date heating degree days 664  
Since 1 July heating degree days 4349  
Cooling Degree Days 0 0  
Month to date cooling degree days 0  
Year to date cooling degree days 0  
Moisture  
Dew Point 16 °F    
Average Humidity 83    
Maximum Humidity 95    
Minimum Humidity 68    
Precipitation  
Precipitation 0.07 in 0.05 in 0.36 in (2008)
Month to date precipitation 0.84  
Year to date precipitation 2.59  
Sea Level Pressure  
Sea Level Pressure 29.95 in    
Wind  
Wind Speed 10 mph (SE)    
Max Wind Speed 22 mph    
Max Gust Speed 34 mph    
Visibility 5 miles    
Events Snow    
T = Trace of Precipitation, MM = Missing Value Source: NWS Daily Summary

Daily Weather History Graph

Daily Weather History Graph

Search for Another Location

Airport:

Trip Planner

Search our weather history database for the weather conditions in past years. The results will help you decide how hot, cold, wet, or windy it might be!

Date:

Astronomy

Feb. 17, 2014 Rise Set
Actual Time 6:39 AM CST 5:23 PM CST
Civil Twilight 6:11 AM CST 5:51 PM CST
Nautical Twilight 5:38 AM CST 6:23 PM CST
Astronomical Twilight 5:06 AM CST 6:55 PM CST
Moon 8:20 PM CST (2/17) 7:37 AM CST (2/17)
Length of Visible Light 11h 40m
Length of Day
10h 43m
Waning Gibbous, 93% of the Moon is Illuminated
Feb 17
Waning Gibbous
Feb 22
Last Quarter
Mar 1
New
Mar 8
First Quarter
Mar 16
Full

Hourly Weather History & Observations

Time (CST) Temp. Windchill Dew Point Humidity Pressure Visibility Wind Dir Wind Speed Gust Speed Precip Events Conditions
12:15 AM 10.6 °F 2.5 °F 7.9 °F 89% 30.29 in 2.0 mi ESE 4.6 mph - N/A   Overcast
12:35 AM 10.2 °F 2.0 °F 7.3 °F 88% 30.28 in 5.0 mi ESE 4.6 mph - N/A   Overcast
12:55 AM 11.8 °F - 9.0 °F 88% 30.28 in 5.0 mi Calm Calm - N/A   Overcast
1:10 AM 14.5 °F 7.1 °F 12.4 °F 91% 30.28 in 5.0 mi SE 4.6 mph - N/A   Overcast
1:35 AM 15.4 °F 8.1 °F 13.1 °F 90% 30.28 in 7.0 mi SE 4.6 mph - N/A   Scattered Clouds
1:55 AM 15.6 °F 8.3 °F 13.3 °F 90% 30.27 in 7.0 mi SE 4.6 mph - N/A   Clear
2:15 AM 16.7 °F 3.8 °F 14.5 °F 91% 30.26 in 7.0 mi ESE 11.5 mph - N/A   Scattered Clouds
2:35 AM 17.1 °F 5.8 °F 14.9 °F 91% 30.26 in 10.0 mi SE 9.2 mph - N/A   Scattered Clouds
2:55 AM 17.2 °F 4.5 °F 14.9 °F 91% 30.25 in 10.0 mi ESE 11.5 mph - N/A   Scattered Clouds
3:15 AM 17.1 °F 3.6 °F 14.9 °F 91% 30.24 in 10.0 mi ESE 12.7 mph - N/A   Scattered Clouds
3:35 AM 17.1 °F 3.6 °F 14.5 °F 90% 30.24 in 10.0 mi ESE 12.7 mph - N/A   Mostly Cloudy
3:55 AM 18.0 °F 5.4 °F 13.1 °F 81% 30.24 in 10.0 mi SE 11.5 mph - N/A   Mostly Cloudy
4:15 AM 18.1 °F 5.6 °F 12.9 °F 80% 30.23 in 10.0 mi ESE 11.5 mph - N/A   Overcast
4:35 AM 17.6 °F 5.0 °F 12.0 °F 79% 30.23 in 10.0 mi ESE 11.5 mph - N/A   Overcast
4:55 AM 17.6 °F 4.3 °F 12.0 °F 79% 30.22 in 10.0 mi ESE 12.7 mph - N/A   Overcast
5:15 AM 17.6 °F 5.0 °F 12.2 °F 79% 30.21 in 10.0 mi ESE 11.5 mph - N/A   Overcast
5:35 AM 18.0 °F 6.1 °F 12.7 °F 80% 30.21 in 10.0 mi ESE 10.4 mph - N/A   Overcast
5:55 AM 18.1 °F 5.6 °F 12.7 °F 79% 30.20 in 10.0 mi ESE 11.5 mph - N/A   Overcast
6:15 AM 18.1 °F 5.6 °F 12.4 °F 78% 30.19 in 10.0 mi ESE 11.5 mph - N/A   Overcast
6:35 AM 17.6 °F 4.3 °F 12.0 °F 79% 30.18 in 10.0 mi ESE 12.7 mph - N/A   Scattered Clouds
6:55 AM 18.1 °F 5.0 °F 12.2 °F 78% 30.18 in 10.0 mi ESE 12.7 mph - N/A   Scattered Clouds
7:15 AM 18.1 °F 5.0 °F 12.2 °F 78% 30.18 in 10.0 mi ESE 12.7 mph - N/A   Scattered Clouds
7:35 AM 18.1 °F 5.6 °F 12.2 °F 78% 30.17 in 7.0 mi SE 11.5 mph - N/A   Mostly Cloudy
7:55 AM 18.3 °F 7.3 °F 12.2 °F 77% 30.17 in 7.0 mi SE 9.2 mph - N/A   Overcast
8:15 AM 19.0 °F 7.5 °F 12.6 °F 76% 30.17 in 7.0 mi SE 10.4 mph 16.1 mph N/A   Overcast
8:35 AM 19.4 °F 6.0 °F 12.2 °F 74% 30.16 in 7.0 mi SE 13.8 mph 18.4 mph N/A   Overcast
8:55 AM 19.2 °F 6.4 °F 12.2 °F 74% 30.13 in 4.0 mi SE 12.7 mph 20.7 mph N/A Snow Light Snow
9:15 AM 19.2 °F 4.3 °F 12.2 °F 74% 30.09 in 7.0 mi SE 17.3 mph 26.5 mph N/A   Overcast
9:35 AM 19.4 °F 7.2 °F 12.2 °F 74% 30.08 in 5.0 mi SE 11.5 mph 24.2 mph N/A   Haze
9:55 AM 20.1 °F 6.4 °F 12.2 °F 71% 30.07 in 7.0 mi SE 15.0 mph 23.0 mph N/A   Overcast
10:15 AM 19.9 °F 7.9 °F 11.8 °F 71% 30.06 in 7.0 mi SE 11.5 mph 21.9 mph N/A   Overcast
10:35 AM 20.1 °F 5.9 °F 11.8 °F 70% 30.04 in 7.0 mi SE 16.1 mph 23.0 mph N/A   Overcast
10:55 AM 20.3 °F 8.3 °F 12.4 °F 71% 30.01 in 7.0 mi SE 11.5 mph 21.9 mph N/A   Overcast
11:15 AM 21.2 °F 6.4 °F 12.2 °F 68% 29.99 in 7.0 mi ESE 18.4 mph 24.2 mph N/A   Overcast
11:35 AM 21.6 °F 7.3 °F 13.1 °F 70% 29.96 in 5.0 mi SE 17.3 mph 26.5 mph N/A   Haze
11:55 AM 21.6 °F 6.9 °F 12.7 °F 69% 29.94 in 7.0 mi SE 18.4 mph 25.3 mph N/A   Mostly Cloudy
12:15 PM 21.4 °F 7.5 °F 12.6 °F 69% 29.91 in 7.0 mi SE 16.1 mph 23.0 mph N/A   Mostly Cloudy
12:35 PM 21.2 °F 9.5 °F 12.9 °F 70% 29.88 in 7.0 mi SE 11.5 mph 24.2 mph N/A   Mostly Cloudy
12:55 PM 21.2 °F 6.4 °F 13.1 °F 71% 29.86 in 5.0 mi SE 18.4 mph 26.5 mph N/A   Haze
1:15 PM 21.7 °F 9.0 °F 13.6 °F 71% 29.85 in 7.0 mi SE 13.8 mph 20.7 mph N/A   Overcast
1:35 PM 20.3 °F 5.2 °F 15.3 °F 81% 29.81 in 0.2 mi ESE 18.4 mph 26.5 mph N/A Snow Snow
1:55 PM 20.1 °F 3.8 °F 16.7 °F 87% 29.76 in 0.2 mi ESE 21.9 mph 26.5 mph N/A Snow Snow
2:15 PM 20.1 °F 3.8 °F 17.4 °F 89% 29.72 in 0.2 mi ESE 21.9 mph 29.9 mph N/A Snow Snow
2:35 PM 20.7 °F 8.2 °F 18.1 °F 90% 29.73 in 0.2 mi SE 12.7 mph 24.2 mph 0.02 in Snow Snow
2:55 PM 21.0 °F 9.3 °F 18.5 °F 90% 29.71 in 0.5 mi SE 11.5 mph 20.7 mph 0.03 in Snow Light Snow
3:15 PM 21.2 °F 10.1 °F 18.5 °F 89% 29.70 in 0.5 mi SE 10.4 mph 16.1 mph 0.01 in Snow Snow
3:35 PM 21.7 °F 11.5 °F 19.4 °F 91% 29.71 in 0.2 mi SE 9.2 mph - 0.01 in Snow Snow
3:55 PM 21.7 °F 11.5 °F 19.4 °F 91% 29.69 in 0.2 mi SE 9.2 mph - 0.03 in Snow Snow
4:15 PM 21.9 °F 13.4 °F 19.4 °F 90% 29.70 in 0.8 mi SSE 6.9 mph - N/A Snow Light Snow
4:35 PM 22.1 °F 15.9 °F 19.6 °F 90% 29.70 in 1.5 mi SSE 4.6 mph - N/A Snow Light Snow
4:55 PM 22.1 °F 15.9 °F 19.8 °F 91% 29.70 in 0.8 mi SSE 4.6 mph - N/A Snow Light Snow
5:15 PM 22.1 °F 17.4 °F 19.9 °F 91% 29.70 in 0.8 mi SSE 3.5 mph - N/A Snow Light Snow
5:35 PM 21.9 °F - 19.9 °F 92% 29.69 in 0.8 mi Calm Calm - 0.01 in Snow Light Snow
5:55 PM 22.1 °F 15.9 °F 20.3 °F 93% 29.69 in 2.5 mi SE 4.6 mph - 0.01 in Snow Light Snow
6:15 PM 22.1 °F 15.9 °F 20.7 °F 94% 29.68 in 2.0 mi SSE 4.6 mph - N/A Snow Light Snow
6:35 PM 22.5 °F 16.3 °F 20.8 °F 93% 29.67 in 1.5 mi SSE 4.6 mph - N/A Snow Light Snow
6:55 PM 22.6 °F 18.0 °F 21.0 °F 93% 29.67 in 1.0 mi SSW 3.5 mph - N/A Snow Snow
7:15 PM 23.0 °F 14.7 °F 21.6 °F 94% 29.68 in 1.5 mi SW 6.9 mph - N/A Snow Light Snow
7:35 PM 23.9 °F 14.2 °F 22.6 °F 95% 29.68 in 2.0 mi WSW 9.2 mph - N/A Snow Light Snow
7:55 PM 25.3 °F 12.6 °F 23.9 °F 94% 29.68 in 2.0 mi West 16.1 mph 21.9 mph N/A Snow Light Snow
8:15 PM 25.7 °F 11.9 °F 23.5 °F 92% 29.69 in 2.5 mi West 19.6 mph 26.5 mph N/A Snow Light Snow
8:35 PM 25.7 °F 12.7 °F 23.0 °F 89% 29.70 in 4.0 mi West 17.3 mph 21.9 mph N/A Snow Light Snow
8:55 PM 26.1 °F 15.6 °F 22.5 °F 86% 29.70 in 7.0 mi West 11.5 mph 23.0 mph N/A   Overcast
9:15 PM 26.4 °F 13.2 °F 21.7 °F 82% 29.71 in 7.0 mi West 18.4 mph 28.8 mph N/A   Overcast
9:35 PM 26.4 °F 14.5 °F 21.7 °F 82% 29.72 in 7.0 mi West 15.0 mph 26.5 mph N/A   Overcast
9:55 PM 26.6 °F 14.7 °F 21.7 °F 82% 29.72 in 3.0 mi WNW 15.0 mph 34.5 mph N/A   Overcast
10:15 PM 27.0 °F 15.6 °F 21.9 °F 81% 29.73 in 4.0 mi WNW 13.8 mph 27.6 mph N/A   Scattered Clouds
10:35 PM 27.1 °F 15.4 °F 22.6 °F 83% 29.73 in 5.0 mi West 15.0 mph 27.6 mph N/A   Haze
10:55 PM 27.3 °F 15.6 °F 23.0 °F 84% 29.74 in 5.0 mi WNW 15.0 mph 25.3 mph N/A   Mostly Cloudy
11:15 PM 27.5 °F 15.4 °F 22.6 °F 82% 29.75 in 5.0 mi WNW 16.1 mph 31.1 mph N/A   Mostly Cloudy
11:35 PM 27.5 °F 16.3 °F 22.1 °F 80% 29.76 in 5.0 mi WNW 13.8 mph 20.7 mph N/A   Haze
11:55 PM 27.5 °F 16.8 °F 22.1 °F 80% 29.77 in 4.0 mi WNW 12.7 mph 21.9 mph N/A   Haze